Tracking 25710 objects as of 6-Jul-2022
HD Live streaming from Space Station
objects crossing your sky now

FENGYUN 1C DEB

Track FENGYUN 1C DEB now!
10-day predictions


NORAD ID: 31066
Int'l Code: 1999-025BFL
Perigee: 467.9 km
Apogee: 700.3 km
Inclination: 99.0 °
Period: 96.2 minutes
Semi major axis: 6955 km
RCS: 0.002 m2 (small)
Launch date: May 10, 1999
Source: People's Republic of China (PRC)
Launch site: Taiyaun Space Center, China (TSC)

Note: This is SATELLITE DEBRIS
aabbcc
Your satellite tracking list
Your tracking list is empty




NASA's NSSDC Master Catalog

Two Line Element Set (TLE):
1 31066U 99025BFL 22186.28449930  .00003868  00000-0  26079-3 0  9991
2 31066  99.0386 207.2475 0167014 224.8794 133.8819 14.96743220827238
Source of the keplerian elements: AFSPC